Weather History for Fort Myers, FL

Change the Weather History Date:

Saturday, May 17, 2014

  Actual Average Record
Temperature  
Mean Temperature 74 °F 79 °F  
Max Temperature 86 °F 90 °F 94 °F (2003)
Min Temperature 61 °F 69 °F 55 °F (1973)
Degree Days  
Heating Degree Days 0 0  
Month to date heating degree days 0 0  
Since 1 July heating degree days 178 287  
Cooling Degree Days 9 14  
Month to date cooling degree days 247 217  
Year to date cooling degree days 974 847  
Growing Degree Days 23 (Base 50)    
Moisture  
Dew Point 53 °F    
Average Humidity 51    
Maximum Humidity 78    
Minimum Humidity 27    
Precipitation  
Precipitation 0.00 in 0.07 in 1.76 in (1933)
Month to date precipitation 1.47 1.03  
Year to date precipitation 9.03 10.18  
Sea Level Pressure  
Sea Level Pressure 30.11 in    
Wind  
Wind Speed 11 mph (NE)    
Max Wind Speed 20 mph    
Max Gust Speed 27 mph    
Visibility 10 miles    
Events      
T = Trace of Precipitation, MM = Missing Value Source: NWS Daily Summary

Daily Weather History Graph

Daily Weather History Graph

Search for Another Location

Airport:

Trip Planner

Search our weather history database for the weather conditions in past years. The results will help you decide how hot, cold, wet, or windy it might be!

Date:

Astronomy

May. 17, 2014 Rise Set
Actual Time 6:39 AM EDT 8:08 PM EDT
Civil Twilight 6:14 AM EDT 8:33 PM EDT
Nautical Twilight 5:43 AM EDT 9:04 PM EDT
Astronomical Twilight 5:12 AM EDT 9:35 PM EDT
Moon 11:10 PM EDT (5/17) 9:20 AM EDT (5/17)
Length of Visible Light 14h 19m
Length of Day
13h 29m
Waning Gibbous, 89% of the Moon is Illuminated
May 17
Waning Gibbous
May 21
Last Quarter
May 28
New
Jun 5
First Quarter
Jun 13
Full

Hourly Weather History & Observations

Time (EDT) Temp. Heat Index Dew Point Humidity Pressure Visibility Wind Dir Wind Speed Gust Speed Precip Events Conditions
12:53 AM 66.0 °F - 48.9 °F 54% 30.11 in 10.0 mi East 5.8 mph - N/A   Clear
1:53 AM 64.9 °F - 52.0 °F 63% 30.10 in 10.0 mi ENE 6.9 mph - N/A   Clear
2:53 AM 62.1 °F - 53.1 °F 72% 30.10 in 10.0 mi NE 4.6 mph - N/A   Clear
3:53 AM 62.1 °F - 54.0 °F 75% 30.10 in 10.0 mi NE 5.8 mph - N/A   Clear
4:53 AM 62.1 °F - 55.0 °F 78% 30.11 in 10.0 mi NNE 5.8 mph - N/A   Clear
5:53 AM 62.1 °F - 55.9 °F 80% 30.12 in 10.0 mi NNE 5.8 mph - N/A   Clear
6:53 AM 62.1 °F - 55.9 °F 80% 30.12 in 10.0 mi NNE 6.9 mph - N/A   Clear
7:53 AM 66.0 °F - 57.0 °F 73% 30.13 in 10.0 mi NNE 9.2 mph - N/A   Clear
8:53 AM 71.1 °F - 54.0 °F 55% 30.14 in 10.0 mi NE 10.4 mph - N/A   Clear
9:53 AM 75.0 °F - 50.0 °F 41% 30.14 in 10.0 mi ENE 15.0 mph - N/A   Clear
10:53 AM 79.0 °F - 48.0 °F 34% 30.14 in 10.0 mi NE 17.3 mph 26.5 mph N/A   Clear
11:53 AM 82.0 °F - 48.9 °F 31% 30.13 in 10.0 mi East 11.5 mph 19.6 mph N/A   Clear
12:53 PM 82.9 °F - 48.0 °F 29% 30.12 in 10.0 mi NE 18.4 mph 26.5 mph N/A   Clear
1:53 PM 82.9 °F - 48.9 °F 31% 30.10 in 10.0 mi ENE 12.7 mph - N/A   Clear
2:53 PM 84.9 °F - 46.9 °F 27% 30.09 in 10.0 mi ENE 12.7 mph 20.7 mph N/A   Clear
3:53 PM 84.9 °F - 50.0 °F 30% 30.06 in 10.0 mi East 11.5 mph 19.6 mph N/A   Clear
4:53 PM 84.9 °F - 52.0 °F 32% 30.05 in 10.0 mi ENE 11.5 mph - N/A   Clear
5:53 PM 84.9 °F - 50.0 °F 30% 30.05 in 10.0 mi ENE 15.0 mph 20.7 mph N/A   Clear
6:53 PM 82.0 °F 81.3 °F 54.0 °F 38% 30.06 in 10.0 mi East 17.3 mph 23.0 mph N/A   Clear
7:53 PM 79.0 °F - 55.0 °F 44% 30.08 in 10.0 mi East 15.0 mph 19.6 mph N/A   Clear
8:53 PM 75.9 °F - 55.9 °F 50% 30.10 in 10.0 mi ENE 8.1 mph - N/A   Clear
10:53 PM 72.0 °F - 57.9 °F 61% 30.14 in 10.0 mi ENE 8.1 mph - N/A   Clear
11:53 PM 70.0 °F - 57.9 °F 65% 30.14 in 10.0 mi NE 10.4 mph - N/A   Clear